EDT,Max TemperatureF,Mean TemperatureF,Min TemperatureF,Max Dew PointF,MeanDew PointF,Min DewpointF,Max Humidity, Mean Humidity, Min Humidity, Max Sea Level PressureIn, Mean Sea Level PressureIn, Min Sea Level PressureIn, Max VisibilityMiles, Mean VisibilityMiles, Min VisibilityMiles, Max Wind SpeedMPH, Mean Wind SpeedMPH, Max Gust SpeedMPH,PrecipitationIn, CloudCover, Events, WindDirDegrees
2012-8-1,87,78,68,72,69,64,100,80,52,29.96,29.92,29.86,10,9,5,9,1,20,0.00,1,Rain-Thunderstorm,226
2012-8-2,89,78,68,72,68,64,100,74,49,29.99,29.93,29.89,10,9,4,15,3,21,0.00,1,Thunderstorm,202
2012-8-3,87,76,64,72,69,64,100,78,51,30.12,30.03,29.97,10,10,7,10,2,,0.00,1,Thunderstorm,201
2012-8-4,89,79,69,73,70,66,100,76,46,30.23,30.17,30.10,10,9,4,13,4,21,0.00,3,,193
2012-8-5,87,79,71,77,72,70,100,83,55,30.26,30.21,30.14,10,10,2,14,5,24,0.07,1,Rain,209
2012-8-6,87,79,71,75,72,70,100,84,55,30.16,30.11,30.04,10,10,7,10,4,,0.16,4,Rain-Thunderstorm,224
2012-8-7,80,76,71,75,73,72,100,93,74,30.09,30.04,30.00,10,10,7,8,2,,0.05,6,Rain-Thunderstorm,209
2012-8-8,84,75,66,75,71,64,100,90,66,30.03,30.01,29.96,10,9,5,12,1,24,0.01,4,Rain-Thunderstorm,196
2012-8-9,86,75,64,73,69,64,100,84,58,30.03,29.97,29.90,10,8,0,9,2,16,0.00,2,Fog,195
2012-8-10,80,74,69,73,71,70,100,90,70,29.92,29.87,29.84,10,10,2,29,5,39,0.64,5,Rain-Thunderstorm,207
2012-8-11,80,74,68,73,72,68,100,96,74,29.98,29.93,29.87,10,9,3,8,5,16,0.17,7,Rain-Thunderstorm,199
2012-8-12,82,73,64,72,66,61,100,78,51,30.05,30.01,29.96,10,9,3,8,2,,0.00,2,Rain,318
2012-8-13,86,73,60,72,64,57,100,77,42,30.09,30.03,29.98,10,8,1,7,1,16,0.00,2,,191
2012-8-14,86,73,60,72,65,61,100,77,43,29.99,29.95,29.89,10,8,1,9,1,,0.00,1,,223
2012-8-15,84,76,68,72,69,68,100,86,62,29.98,29.94,29.91,10,9,3,5,1,,0.00,1,,267
2012-8-16,84,74,64,70,64,59,100,75,42,30.07,30.02,29.97,10,9,7,9,2,,0.00,2,,352
2012-8-17,87,73,59,73,65,59,100,78,43,30.02,29.93,29.86,10,8,1,10,2,,0.00,2,Rain,223
2012-8-18,82,73,64,70,66,63,100,80,51,29.97,29.92,29.88,10,9,2,10,2,16,0.00,3,,34
2012-8-19,69,66,64,70,68,64,100,98,94,29.95,29.92,29.89,10,9,1,16,4,20,1.43,7,Rain-Thunderstorm,51
2012-8-20,77,70,64,70,66,64,100,92,65,30.01,29.94,29.89,10,7,0,6,1,,0.05,5,Fog-Rain,5
2012-8-21,78,70,62,70,65,61,100,85,54,30.11,30.05,30.00,10,7,1,7,0,,0.00,2,,111
2012-8-22,78,72,66,70,68,64,100,90,61,30.17,30.13,30.09,10,8,0,8,3,,0.00,5,Fog,58
2012-8-23,82,73,64,70,65,59,100,81,45,30.19,30.16,30.13,10,8,1,12,2,16,0.00,1,,61
2012-8-24,77,68,60,70,64,59,100,85,54,30.20,30.17,30.14,10,8,0,12,2,,0.00,1,Fog,50
2012-8-25,68,64,60,64,63,57,100,92,78,30.17,30.15,30.12,10,9,4,13,5,23,0.15,8,Rain-Thunderstorm,353
2012-8-26,78,71,64,70,66,63,100,88,61,30.24,30.17,30.14,10,9,2,5,1,,0.00,5,,302
2012-8-27,86,74,62,73,68,63,100,86,55,30.20,30.13,30.05,10,9,1,6,0,,0.00,4,,182
2012-8-28,87,78,69,73,71,64,100,85,46,30.06,30.00,29.93,10,9,1,12,2,,0.38,3,Rain-Thunderstorm,224
2012-8-29,84,75,66,72,68,63,100,84,48,30.04,30.00,29.96,10,7,0,6,2,,0.00,4,Fog,55
2012-8-30,86,74,62,72,67,63,100,81,45,30.19,30.12,30.05,10,8,1,10,2,,0.00,0,,191
2012-8-31,89,79,69,75,72,70,100,84,52,30.24,30.17,30.10,10,8,1,9,2,,0.00,3,,246